GW5441 Weather Reports


time (UTC)temp
F
wind
direction
speed
knots
gust
knots
rain 1hr
in
rain 24hr
in
rain mn
in
humidity
%
barometer
mb
20260507003050 48 24 0.9 2.6 0.00 1.62 0.03 95 1012.7
20260507002534 48 13 0.9 2.6 0.00 1.62 0.03 95 1012.8
20260507002035 48 5 1.7 3.5 0.00 1.62 0.03 95 1012.7
20260507001548 49 10 0.0 3.5 0.00 1.62 0.03 95 1012.6
20260507001034 49 263 0.9 3.5 0.00 1.62 0.03 94 1012.7
20260507000536 49 349 0.9 2.6 0.00 1.62 0.03 95 1012.7
20260507000049 49 9 0.0 1.7 0.00 1.62 0.03 95 1012.5
20260506235534 49 335 0.9 1.7 0.00 1.62 0.03 95 1012.6
20260506235035 49 360 0.0 1.7 0.00 1.62 0.03 95 1012.7
20260506234552 49 360 0.0 2.6 0.00 1.62 0.03 95 1012.4
20260506234035 49 0 0.0 2.6 0.00 1.62 0.03 95 1012.4
20260506233535 49 339 0.9 2.6 0.00 1.62 0.03 95 1012.4
20260506233046 49 25 0.0 1.7 0.00 1.62 0.03 95 1012.3
20260506232534 49 0 0.0 1.7 0.00 1.62 0.03 95 1012.5
20260506232034 49 0 0.0 2.6 0.00 1.62 0.03 95 1012.7
20260506231546 49 0 0.9 3.5 0.01 1.62 0.03 95 1012.5
20260506231035 49 355 0.9 3.5 0.02 1.62 0.03 95 1012.6
20260506230534 49 23 1.7 4.3 0.03 1.62 0.03 95 1012.6
20260506230056 50 10 1.7 4.3 0.03 1.62 0.03 95 1012.5
20260506225534 50 28 1.7 4.3 0.03 1.64 0.03 95 1012.5
20260506225035 50 355 0.9 3.5 0.03 1.64 0.03 95 1012.6
20260506224550 50 5 1.7 3.5 0.03 1.64 0.03 95 1012.5
20260506224034 50 34 0.9 3.5 0.03 1.64 0.03 95 1012.5
20260506223534 50 17 0.9 3.5 0.03 1.64 0.03 95 1012.4
20260506223056 50 37 0.9 4.3 0.03 1.64 0.03 95 1012.6
20260506222535 50 61 2.6 5.2 0.03 1.64 0.03 95 1012.5
20260506222038 50 71 1.7 5.2 0.03 1.63 0.03 94 1012.6
20260506221547 50 90 1.7 3.5 0.02 1.62 0.02 94 1012.6
20260506221034 50 15 0.9 3.5 0.02 1.62 0.01 94 1012.6
20260506220536 50 0 0.0 1.7 0.01 1.61 0.00 94 1012.7
20260506220053 50 5 0.0 2.6 0.00 1.60 0.00 94 1012.7
20260506215534 50 333 0.0 2.6 0.00 1.66 1.60 94 1012.8
20260506215034 50 303 0.0 1.7 0.00 1.66 1.60 94 1012.9
20260506214551 50 0 0.0 1.7 0.01 1.66 1.60 94 1012.7
20260506214035 50 340 0.9 2.6 0.02 1.66 1.60 94 1012.5
20260506213538 50 33 0.0 2.6 0.03 1.66 1.60 94 1012.6
20260506213048 50 0 0.9 3.5 0.03 1.66 1.60 94 1012.5
20260506212534 50 94 0.9 3.5 0.03 1.66 1.60 93 1012.5
20260506212035 50 51 0.9 4.3 0.03 1.66 1.60 93 1012.3
20260506211549 50 65 2.6 4.3 0.03 1.66 1.60 93 1012.0
20260506211034 50 31 0.9 2.6 0.03 1.66 1.59 93 1012.0
20260506210534 50 355 0.9 2.6 0.03 1.66 1.59 93 1012.4
20260506210048 50 327 0.9 3.5 0.03 1.66 1.59 94 1012.5
20260506205535 50 46 0.9 3.5 0.03 1.73 1.59 94 1012.3
20260506205035 50 42 1.7 3.5 0.04 1.73 1.59 94 1012.3
20260506204558 50 41 0.9 1.7 0.04 1.72 1.59 94 1012.3
20260506204038 50 0 0.0 2.6 0.03 1.71 1.58 94 1012.3
20260506203535 50 340 0.9 2.6 0.03 1.70 1.57 93 1012.3
20260506203045 50 0 0.0 3.5 0.03 1.70 1.56 93 1012.1
20260506202535 50 343 0.9 3.5 0.04 1.70 1.56 93 1011.9
20260506202035 50 325 0.0 2.6 0.05 1.70 1.56 93 1011.8
20260506201544 50 0 0.0 2.6 0.06 1.70 1.56 93 1011.8
20260506201038 50 317 0.0 2.6 0.05 1.69 1.55 92 1011.8
20260506200534 50 319 0.0 2.6 0.05 1.69 1.55 92 1011.9
20260506195535 51 35 0.9 7.0 0.05 1.72 1.55 92 1011.7
20260506195036 50 115 0.9 7.0 0.05 1.72 1.55 92 1011.7
20260506194550 51 328 0.9 4.3 0.07 1.71 1.54 93 1011.5
20260506194035 51 0 0.0 4.3 0.10 1.71 1.54 93 1011.3
20260506193537 51 9 2.6 4.3 0.13 1.70 1.53 92 1011.3
20260506193047 51 42 2.6 4.3 0.14 1.70 1.53 92 1011.4
20260506192538 51 45 0.9 2.6 0.13 1.69 1.51 93 1011.3
20260506192038 51 14 0.9 2.6 0.12 1.68 1.51 93 1011.1
20260506191553 51 346 0.9 4.3 0.11 1.67 1.50 92 1011.0
20260506191035 51 355 1.7 4.3 0.11 1.67 1.50 92 1010.8
20260506190535 52 15 1.7 3.5 0.11 1.67 1.50 92 1010.7
20260506190048 52 11 0.9 1.7 0.11 1.66 1.49 92 1010.8
20260506185534 52 0 0.0 0.9 0.11 1.70 1.49 92 1010.7
20260506185041 52 0 0.0 4.3 0.10 1.69 1.48 92 1010.5
20260506184550 52 0 0.0 4.3 0.07 1.66 1.46 92 1010.5
20260506184033 53 279 0.9 4.3 0.05 1.64 1.44 92 1010.4
20260506183535 53 14 0.9 4.3 0.01 1.60 1.40 91 1010.1
20260506183102 53 65 0.9 3.5 0.00 1.59 1.39 91 1010.1
20260506182534 53 19 2.6 3.5 0.00 1.59 1.38 90 1010.4
20260506182034 53 107 0.0 1.7 0.00 1.59 1.38 90 1010.2
20260506181558 53 131 0.0 2.6 0.00 1.59 1.38 90 1010.0
20260506181036 54 102 0.0 5.2 0.00 1.59 1.38 90 1009.8
20260506180537 54 0 0.9 5.2 0.00 1.59 1.38 89 1009.7
20260506180051 54 0 0.9 2.6 0.00 1.59 1.38 89 1009.6
20260506175539 54 110 0.0 1.7 0.00 1.62 1.38 89 1009.5
20260506175034 54 110 0.0 1.7 0.00 1.62 1.38 88 1009.4
20260506174549 54 0 0.0 1.7 0.00 1.62 1.38 88 1009.3
20260506174035 54 21 0.0 1.7 0.00 1.62 1.38 86 1009.5
20260506173535 54 0 0.0 1.7 0.00 1.62 1.38 86 1009.6
20260506173055 54 135 0.0 1.7 0.00 1.62 1.38 86 1009.4
20260506172535 55 130 0.9 1.7 0.00 1.62 1.38 87 1009.4
20260506172035 55 0 0.0 2.6 0.00 1.62 1.38 86 1009.5
20260506171550 55 97 0.0 2.6 0.00 1.62 1.38 87 1009.5
20260506171035 55 0 0.0 3.5 0.00 1.62 1.38 88 1009.5
20260506170534 55 0 0.9 3.5 0.00 1.62 1.38 89 1009.5
20260506170053 55 155 0.9 2.6 0.00 1.62 1.38 90 1009.4
20260506165538 54 196 0.0 1.7 0.00 1.64 1.38 90 1009.4
20260506165036 55 196 0.0 1.7 0.00 1.64 1.38 90 1009.5
20260506164551 54 175 0.0 3.5 0.00 1.64 1.38 90 1009.5
20260506164034 54 0 0.0 3.5 0.00 1.64 1.38 89 1009.5
20260506163535 55 171 0.9 4.3 0.00 1.64 1.38 89 1009.5
20260506163054 55 142 0.9 4.3 0.00 1.64 1.38 88 1009.4
20260506162535 55 144 0.9 3.5 0.00 1.64 1.38 90 1009.1
20260506162035 55 0 0.9 4.3 0.00 1.64 1.38 89 1009.1
20260506161603 55 167 0.9 4.3 0.00 1.64 1.38 90 1009.0
20260506161034 55 0 0.9 4.3 0.00 1.64 1.38 90 1009.1
20260506160535 55 232 1.7 4.3 0.00 1.64 1.38 94 1009.2
20260506160048 54 203 0.0 2.6 0.00 1.64 1.38 96 1009.2
20260506155534 53 229 0.0 2.6 0.00 1.65 1.38 96 1009.5
20260506155034 52 0 0.0 2.6 0.00 1.65 1.38 96 1009.4
20260506154548 52 0 0.0 2.6 0.00 1.65 1.38 96 1009.4
20260506154035 52 0 0.0 1.7 0.00 1.65 1.38 95 1009.5
20260506153534 51 0 0.0 1.7 0.00 1.65 1.38 95 1009.5
20260506153045 51 0 0.0 2.6 0.00 1.65 1.38 96 1009.5
20260506152535 51 0 0.0 2.6 0.00 1.65 1.38 95 1009.7
20260506152038 51 0 0.0 2.6 0.00 1.65 1.38 96 1009.7
20260506151602 51 0 0.0 3.5 0.00 1.65 1.38 95 1009.7
20260506151034 51 0 0.0 4.3 0.00 1.65 1.38 96 1009.7
20260506150535 51 225 0.9 4.3 0.00 1.65 1.38 95 1009.7
20260506150046 51 243 0.0 2.6 0.00 1.65 1.38 95 1009.6
20260506145535 51 0 0.9 2.6 0.00 1.65 1.38 95 1009.6
20260506145034 51 124 0.0 2.6 0.00 1.65 1.38 95 1009.6
20260506144551 51 0 0.9 4.3 0.00 1.65 1.38 95 1009.6
20260506144041 51 82 0.9 4.3 0.00 1.65 1.38 95 1009.7
20260506143535 51 113 0.0 2.6 0.00 1.65 1.38 96 1009.9
20260506143057 51 0 0.0 3.5 0.00 1.65 1.38 95 1009.9
20260506142534 52 123 0.9 3.5 0.00 1.65 1.38 96 1009.9
20260506142034 52 128 0.9 3.5 0.00 1.65 1.38 96 1010.0
20260506141547 51 110 0.9 2.6 0.00 1.65 1.38 96 1010.0
20260506141036 51 0 0.0 1.7 0.00 1.65 1.38 96 1009.9
20260506140536 50 0 0.0 5.2 0.01 1.65 1.38 96 1010.1
20260506140056 50 0 0.9 5.2 0.03 1.65 1.38 95 1010.0
20260506135536 50 167 1.7 5.2 0.03 1.66 1.38 95 1010.3
20260506135035 50 0 0.9 2.6 0.05 1.66 1.38 95 1010.3
20260506134545 49 0 0.0 4.3 0.06 1.66 1.38 95 1010.4
20260506134035 49 24 1.7 6.1 0.10 1.66 1.38 95 1010.5
20260506133535 49 37 1.7 7.8 0.17 1.66 1.38 95 1010.6
20260506133048 49 76 2.6 7.8 0.25 1.66 1.38 94 1010.6
20260506132534 49 59 3.5 7.8 0.31 1.66 1.38 94 1010.6
20260506132038 49 100 2.6 6.1 0.34 1.66 1.37 94 1010.6
20260506131545 49 31 0.9 6.1 0.35 1.66 1.37 94 1010.3
20260506131039 49 315 1.7 11.3 0.35 1.66 1.37 95 1010.0
20260506130534 49 41 5.2 11.3 0.42 1.65 1.37 94 1009.2
20260506125536 49 300 0.9 8.7 0.53 1.63 1.34 94 1010.4
20260506125034 49 220 3.5 8.7 0.53 1.62 1.33 93 1010.1
20260506124550 50 233 1.7 7.0 0.54 1.60 1.31 94 1009.6
20260506124035 50 184 0.9 5.2 0.51 1.56 1.27 95 1009.6
20260506123535 50 282 0.9 8.7 0.45 1.49 1.20 95 1009.9
20260506123048 50 228 0.9 13.9 0.37 1.40 1.11 94 1009.9
20260506122535 50 294 4.3 13.9 0.32 1.36 1.07 93 1010.0
20260506122034 51 329 1.7 7.8 0.27 1.31 1.02 94 1009.9
20260506121547 51 345 1.7 7.8 0.27 1.31 1.02 94 1009.5
20260506121035 51 292 4.3 7.8 0.27 1.31 1.02 94 1009.3
20260506120535 52 254 0.9 5.2 0.18 1.22 0.93 94 1008.8
20260506120053 52 331 0.9 7.8 0.11 1.14 0.85 94 1008.7
20260506115534 52 269 0.0 7.8 0.06 1.10 0.81 93 1009.1
20260506115034 53 277 1.7 7.8 0.04 1.08 0.79 93 1008.8
20260506114546 53 0 0.0 2.6 0.02 1.06 0.77 93 1008.5
20260506114034 53 327 0.9 3.5 0.00 1.04 0.75 93 1008.2
20260506113534 53 0 0.0 5.2 0.00 1.03 0.74 93 1008.3
20260506113049 53 73 0.9 6.1 0.02 1.03 0.74 93 1008.2
20260506112534 53 47 0.9 6.1 0.03 1.03 0.74 93 1008.1
20260506112034 53 57 1.7 4.3 0.03 1.03 0.74 93 1008.2
20260506111549 53 82 0.9 6.1 0.03 1.03 0.74 93 1008.2
20260506111037 53 5 2.6 6.1 0.03 1.03 0.74 93 1008.2
20260506110535 53 98 1.7 5.2 0.03 1.03 0.74 93 1008.2
20260506110053 53 76 0.0 5.2 0.03 1.03 0.74 93 1008.2
20260506105535 53 77 2.6 7.8 0.03 1.05 0.74 93 1008.5
20260506105035 53 38 3.5 7.8 0.03 1.05 0.74 93 1008.8
20260506104544 53 36 0.9 5.2 0.03 1.05 0.74 93 1008.9
20260506104034 54 182 0.9 5.2 0.03 1.05 0.74 94 1008.9
20260506103535 54 52 1.7 5.2 0.02 1.04 0.74 94 1008.8
20260506103047 53 344 0.9 4.3 0.00 1.03 0.72 95 1008.8
20260506102535 53 61 1.7 4.3 0.00 1.02 0.71 94 1008.9
20260506102035 53 169 0.0 1.7 0.00 1.02 0.71 94 1008.9
20260506101553 53 144 0.0 2.6 0.00 1.02 0.71 94 1008.8
20260506101036 53 0 0.0 2.6 0.00 1.02 0.71 93 1008.8
20260506100535 53 319 0.9 2.6 0.00 1.02 0.71 94 1008.7
20260506100048 53 0 0.0 6.1 0.00 1.02 0.71 94 1008.5
20260506095538 53 39 0.9 6.1 0.00 1.03 0.71 94 1008.5
20260506095035 53 57 2.6 6.1 0.00 1.03 0.71 93 1008.5
20260506094554 54 122 1.7 5.2 0.00 1.03 0.71 93 1008.4
20260506094037 54 128 0.9 3.5 0.00 1.03 0.71 94 1008.2
20260506093540 54 164 0.0 4.3 0.00 1.03 0.71 94 1008.2
20260506093053 54 290 0.9 7.0 0.00 1.03 0.71 95 1008.2
20260506092535 53 28 1.7 7.0 0.00 1.03 0.70 96 1008.2
20260506092035 53 15 2.6 7.8 0.00 1.03 0.70 96 1008.2
20260506091547 53 5 3.5 7.8 0.00 1.03 0.70 96 1008.4
20260506091040 53 65 3.5 7.0 0.00 1.03 0.70 96 1008.4
20260506090536 53 80 2.6 7.0 0.00 1.03 0.70 96 1008.2
20260506090047 53 101 1.7 7.0 0.00 1.03 0.70 96 1008.2
20260506085536 53 84 2.6 6.1 0.00 1.11 0.70 97 1008.1
20260506085036 53 54 1.7 7.0 0.00 1.11 0.70 97 1008.0
20260506084550 53 101 2.6 7.0 0.00 1.11 0.70 97 1008.0
20260506084036 53 77 2.6 5.2 0.00 1.11 0.70 97 1008.0
20260506083539 53 69 1.7 5.2 0.00 1.11 0.70 97 1008.1
20260506083048 53 115 0.9 7.0 0.00 1.11 0.70 97 1008.3
20260506082542 52 0 0.9 7.0 0.00 1.11 0.70 97 1008.2
20260506082040 52 80 2.6 7.0 0.00 1.11 0.70 97 1008.3
20260506081548 52 97 2.6 6.1 0.00 1.11 0.70 97 1008.3
20260506081038 52 113 1.7 4.3 0.00 1.11 0.70 97 1008.3
20260506080537 52 81 0.9 4.3 0.00 1.11 0.70 97 1008.4
20260506073051 51 112 0.9 12.2 0.01 1.28 0.70 97 1008.7
20260506072537 50 40 2.6 12.2 0.03 1.28 0.70 97 1008.7
20260506072038 51 51 5.2 11.3 0.03 1.27 0.70 97 1008.8
20260506071604 51 9 5.2 8.7 0.04 1.27 0.70 97 1008.9
20260506071033 51 109 1.7 8.7 0.06 1.27 0.70 97 1008.9
20260506070538 51 355 2.6 8.7 0.07 1.27 0.70 97 1008.7
20260506062039 51 82 2.6 7.0 0.12 1.30 0.66 97 1009.0
20260506061546 51 121 1.7 3.5 0.11 1.29 0.65 97 1009.0
20260506061037 51 82 0.9 2.6 0.11 1.27 0.63 97 1009.0
20260506060538 51 14 0.0 2.6 0.11 1.26 0.62 97 1009.1
20260506051036 51 22 0.0 1.7 0.11 1.19 0.52 97 1009.3
20260506050535 51 0 0.0 1.7 0.11 1.18 0.51 97 1009.6
20260506045035 51 69 0.9 2.6 0.11 1.15 0.48 97 1009.6
20260506044551 51 0 0.0 3.5 0.13 1.15 0.48 97 1009.6
20260506044035 51 175 0.9 4.3 0.13 1.14 0.47 97 1009.7
20260506043540 51 44 0.9 4.3 0.14 1.14 0.46 97 1009.6
20260506043045 51 13 1.7 4.3 0.14 1.12 0.44 97 1009.6
20260506042535 51 0 1.7 4.3 0.16 1.11 0.44 97 1009.7
20260506042038 51 59 0.0 1.7 0.16 1.11 0.43 97 1009.7
20260506041555 51 0 0.0 1.7 0.15 1.10 0.42 97 1009.8
20260506041035 51 114 0.9 2.6 0.15 1.08 0.40 97 1009.9
20260506040535 51 106 0.0 2.6 0.14 1.07 0.40 97 1009.7
20260506040048 51 109 0.9 2.6 0.14 1.06 0.38 97 1009.7
20260506035538 51 0 0.0 4.3 0.14 1.04 0.37 97 1009.7
20260506035038 51 61 0.9 4.3 0.14 1.03 0.36 97 1009.7
20260506034545 51 103 1.7 4.3 0.14 1.02 0.34 97 1009.8
20260506034036 51 92 1.7 4.3 0.14 1.00 0.33 97 1010.0
20260506033537 51 110 0.9 3.5 0.13 1.00 0.32 97 1010.0
20260506033048 51 78 1.7 3.5 0.11 0.97 0.29 97 1010.1
20260506032535 51 89 0.9 3.5 0.08 0.95 0.27 97 1010.3
20260506032035 51 105 0.0 3.5 0.07 0.94 0.26 97 1010.2
20260506031546 51 70 1.7 3.5 0.07 0.94 0.26 97 1010.2
20260506031035 51 109 0.0 3.5 0.06 0.92 0.25 97 1010.3
20260506030536 51 93 0.9 3.5 0.06 0.92 0.25 97 1010.5
20260506030052 51 102 0.0 4.3 0.04 0.91 0.23 97 1010.6
20260506025535 51 66 1.7 4.3 0.03 0.89 0.22 97 1010.5
20260506025035 51 78 0.9 2.6 0.03 0.88 0.21 97 1010.6
20260506024549 51 5 0.0 2.6 0.02 0.88 0.20 97 1010.6
20260506024035 51 0 0.0 2.6 0.00 0.86 0.18 97 1010.5
20260506023536 51 46 0.9 2.6 0.00 0.86 0.18 97 1010.7
20260506023048 51 95 0.9 3.5 0.00 0.86 0.18 97 1010.8
20260506022535 51 106 0.9 3.5 0.00 0.86 0.18 97 1011.0
20260506022035 51 144 1.7 3.5 0.00 0.86 0.18 97 1011.0
20260506021548 51 112 0.0 1.7 0.00 0.86 0.18 97 1011.0
20260506021034 51 0 0.0 1.7 0.00 0.86 0.18 97 1010.9
20260506020534 51 0 0.0 3.5 0.00 0.86 0.18 97 1011.0
20260506020041 51 0 0.0 3.5 0.00 0.86 0.18 97 1011.1
20260506015535 51 109 0.9 2.6 0.00 0.85 0.18 97 1011.0
20260506015037 51 153 0.0 2.6 0.00 0.85 0.18 97 1011.0
20260506014549 51 0 0.0 1.7 0.00 0.85 0.18 97 1011.0
20260506014034 51 153 0.0 1.7 0.00 0.85 0.18 97 1011.0
20260506013534 51 0 0.0 0.9 0.03 0.85 0.18 97 1011.0
20260506013043 51 153 0.0 0.9 0.11 0.85 0.18 97 1011.1
20260506012534 51 0 0.0 0.9 0.13 0.85 0.18 97 1011.2
20260506012035 51 0 0.0 1.7 0.14 0.85 0.18 97 1011.2
20260506011547 51 0 0.0 1.7 0.14 0.85 0.18 97 1011.1
20260506011033 51 153 0.0 1.7 0.14 0.85 0.18 97 1011.3
20260506010537 51 0 0.0 0.0 0.15 0.85 0.18 97 1011.4
20260506010047 51 0 0.0 0.0 0.15 0.85 0.18 97 1011.6
20260506005537 51 0 0.0 0.9 0.15 0.85 0.18 97 1011.7
20260506005034 51 0 0.0 1.7 0.15 0.85 0.18 97 1011.5
20260506004544 51 0 0.0 1.7 0.15 0.85 0.18 97 1011.6
20260506004034 51 0 0.0 0.9 0.15 0.85 0.17 97 1011.6
20260506003535 51 0 0.0 0.9 0.12 0.81 0.14 97 1011.6